Location: Beadle
(51.4667°N, 109.0000°W)
Time: 11:52:26
(UTC+00:00)

PicSat - Visible Passes

Search period start: 28 June 2022 00:00
Search period end: 08 July 2022 00:00
Orbit: 453 x 459 km, 97.4° (Epoch: 28 June)

Date Brightness Start Highest point End Pass type
(mag) Time Alt. Az. Time Alt. Az. Time Alt. Az.
28 Jun ? 05:40:02 18° S 05:42:27 60° W 05:45:52 10° NNW visible
29 Jun ? 05:06:31 14° SSE 05:09:16 54° ENE 05:12:39 10° N visible
29 Jun ? 06:40:44 10° WSW 06:42:29 13° W 06:44:14 10° WNW visible
30 Jun ? 04:33:24 10° ESE 04:36:13 24° ENE 04:39:03 10° N visible
30 Jun ? 06:06:45 15° SSW 06:08:59 29° W 06:12:04 10° NNW visible
01 Jul ? 05:33:12 18° S 05:35:39 73° WSW 05:39:06 10° NNW visible
02 Jul ? 04:59:38 13° SE 05:02:25 44° ENE 05:05:45 10° N visible
02 Jul ? 06:33:24 10° SW 06:35:32 16° W 06:37:43 10° NW visible
03 Jul ? 04:26:44 10° ESE 04:29:20 20° ENE 04:31:58 10° NNE visible
03 Jul ? 05:59:48 17° SSW 06:02:01 35° W 06:05:14 10° NNW visible
04 Jul ? 05:26:11 18° SSE 05:28:38 89° W 05:32:07 10° NNW visible
05 Jul ? 04:52:32 12° SE 04:55:22 37° ENE 04:58:36 10° N visible
05 Jul ? 06:26:18 12° SW 06:28:23 19° W 06:30:55 10° NW visible
06 Jul ? 04:19:53 10° ESE 04:22:15 18° ENE 04:24:37 10° NNE visible
06 Jul ? 05:52:38 18° SSW 05:54:50 42° W 05:58:09 10° NNW visible
07 Jul ? 05:18:57 18° SSE 05:21:25 75° ENE 05:24:53 10° N visible
